Regional Weather Roundup
Issued by NWS Newport/Morehead, NC

Current Version | Previous Version | Text Only | Print | Product List | Glossary Off
Versions: 1 2 3 4 5 6 7 8 9 10 11 12 13 14 15 16 17 18 19 20 21 22 23 24 25 26 27 28 29 30 31 32 33 34 35 36 37 38 39 40 41 42 43 44 45 46 47 48 49 50
000 ASUS42 KMHX 141713 RWRMHX WEATHER ROUNDUP FOR EASTERN NORTH CAROLINA NATIONAL WEATHER SERVICE NEWPORT/MOREHEAD CITY NC 1200 PM EST SUN FEB 14 2016 NOTE: "FAIR" INDICATES FEW OR NO CLOUDS BELOW 12,000 FEET WITH NO SIGNIFICANT WEATHER AND/OR OBSTRUCTIONS TO VISIBILITY NCZ015>017-031-032-045>047-102-103-141800- NORTH COAST CITY SKY/WX TMP DP RH WIND PRES REMARKS EDENTON SUNNY 27 0 31 N3 30.57F ELIZABETH CITY SUNNY 25 4 40 N10 30.56F WCI 15 KITTY HAWK MOSUNNY 28 10 46 N10G16 30.54S WCI 19 MANTEO PTSUNNY 24 12 59 NE15G22 30.55F WCI 11 $$ NCZ045>047-081-094-103-104-141800- CENTRAL COAST CITY SKY/WX TMP DP RH WIND PRES REMARKS FRISCO CLOUDY 28 14 55 N10G18 30.54F WCI 19 SWANQUARTER N/A 27 N/A N/A NE8G15 30.53S $$ NCZ095-097-098-100-101-141800- SOUTHERN COAST CITY SKY/WX TMP DP RH WIND PRES REMARKS BEAUFORT SUNNY 28 6 39 NE14 30.55F WCI 17 CEDAR ISLAND N/A 27 N/A N/A N17 30.59S WCI 14 JACKSONVILLE SUNNY 29 0 28 N10 30.55F WCI 20 PINEY ISLAND SUNNY N/A N/A N/A N13 30.56S WILMINGTON SUNNY 31 2 29 NE6 30.54F $$ NCZ011>013-027>030-043-044-078>080-089-090>093-098-141800- COASTAL PLAIN CITY SKY/WX TMP DP RH WIND PRES REMARKS AHOSKIE SUNNY 23 -2 34 CALM 30.58S CLINTON SUNNY 28 3 34 E7 30.56F ELIZABETHTOWN CLOUDY 29 1 29 E3 30.54F GOLDSBORO SUNNY 27 -2 28 VRB7 30.54F GREENVILLE SUNNY 27 0 31 CALM 30.56F HAVELOCK SUNNY 28 2 32 N10G22 30.56F WCI 19 KENANSVILLE SUNNY 26 0 31 CALM 30.56F KINSTON SUNNY 27 0 31 NE12 30.56F WCI 16 NEW BERN SUNNY 28 2 32 N10 30.57F WCI 19 RICHLANDS SUNNY 27 1 33 N8 30.55F ROCKY MOUNT SUNNY 26 0 32 NE9 30.57F WASHINGTON SUNNY 27 1 32 N10 30.56F WCI 17 WHITEVILLE SUNNY 31 2 29 N6 30.53F $$ AMZ130-135-150-152-154-156-158-170-250-252-270-ANZ085-086-088-633-658-670-141800- MARINE OBSERVATIONS STATION/POSITION TIME TEMP WIND PRES WAVE SWELL AIR SEA DIR/SP/G HT/PER HT/PER (UTC) (F) (DEG/KT/KT) (MB) (FT/S) (FT/S) CHESAPEAKE LIGHT 1600 20 350/ 13/ 15 1035.6 64 E VA BEACH 1650 24 50 360/ 17/ 23 1033.4 7/ 7 DUCK 1600 22 360/ 16/ 20 1034.0 2 E DUCK 1611 41 N/A 4/ 7 OREGON INLET 1600 23 36 330/ 15/ 19 1034.3 13E OREGON INLT 1700 44 N/A 7/ 7 HATTERAS CG 1600 24 38 350/ 17/ 19 1034.0 DIAMOND BUOY 1650 29 71 10/ 17/ 23 1033.3 5/ 8 CAPE LOOKOUT 1700 26 360/ 13/ 19 1033.8 BEAUFORT LAB 1600 25 40 30/ 11/ 16 1033.9 30 SE NEW RVR IN 1608 29 60 1033.2 30 SE NEW RVR IN 1625 60 N/A 5/ 6 27 SE WRIGHTSVLE 1608 32 59 30/ 16/ 23 1032.9 5 SE WRIGHTSVLE 1608 27 50 30/ 14/ 19 1034.6 225 S CAPE HAT 1650 48 67 30/ 12/ 17 N/A 9/11 8/11 41 SE CHARLESTON 1650 43 68 40/ 17/ 23 1030.5 5/ 7 2/11 $$

USA.gov is the U.S. government's official web portal to all federal, state and local government web resources and services.